(796) Sarita(796) Sarita Epoch 2007 Oct. 27.0 TT = JDT 2454400.5 Goffin M 284.33951 (2000.0) P Q n 0.23013045 Peri. 329.43308 +0.98348362 -0.02309762 a 2.6372623 Node 33.37704 +0.13231548 +0.76850878 e 0.3187226 Incl. 19.04486 -0.12350131 +0.63942221 P 4.28 H 9.12 G 0.15 U 0 From 448 observations at 31 oppositions, 1914-2004, mean residual 0".54.An explanation of the orbital elements is available.
These orbital elements are also available in forms suitable for loading into a number of popular planetarium-type software programs.
Personalized ephemerides for this object (and others) can be generated using the MPES.
Date TT R. A. (2000) Decl. Delta r Elong. Phase V 2008 08 08 01 28.95 -17 16.2 1.103 1.824 118.9 29.1 11.9 2008 08 13 01 31.99 -16 57.7 1.062 1.818 122.4 28.1 11.8 2008 08 18 01 34.11 -16 39.6 1.023 1.813 126.0 26.9 11.7 2008 08 23 01 35.21 -16 21.3 0.986 1.808 129.8 25.4 11.5 2008 08 28 01 35.25 -16 02.2 0.952 1.805 133.8 23.8 11.4 2008 09 02 01 34.16 -15 41.2 0.921 1.802 138.0 22.0 11.3 2008 09 07 01 31.95 -15 17.2 0.893 1.800 142.4 20.0 11.1 2008 09 12 01 28.63 -14 49.0 0.869 1.798 146.9 17.8 11.0 2008 09 17 01 24.29 -14 15.5 0.849 1.797 151.4 15.5 10.9 2008 09 22 01 19.03 -13 35.8 0.834 1.797 155.8 13.2 10.8 2008 09 27 01 13.04 -12 49.0 0.824 1.798 159.6 11.2 10.7 2008 10 02 01 06.54 -11 54.7 0.820 1.799 162.4 9.7 10.6 2008 10 07 00 59.81 -10 52.7 0.821 1.801 163.5 9.1 10.6 2008 10 12 00 53.14 -09 43.4 0.828 1.804 162.4 9.6 10.6 2008 10 17 00 46.80 -08 28.0 0.840 1.808 159.5 11.1 10.7 2008 10 22 00 41.03 -07 07.6 0.859 1.812 155.5 13.2 10.8 2008 10 27 00 36.01 -05 43.4 0.883 1.817 150.9 15.4 11.0 2008 11 01 00 31.90 -04 16.6 0.913 1.823 146.1 17.7 11.1 2008 11 06 00 28.79 -02 48.5 0.947 1.829 141.3 19.8 11.3 2008 11 11 00 26.72 -01 19.9 0.986 1.836 136.6 21.7 11.5 2008 11 16 00 25.68 +00 08.3 1.029 1.844 132.0 23.5 11.6 2008 11 21 00 25.64 +01 35.7 1.076 1.852 127.6 25.0 11.8 2008 11 26 00 26.54 +03 01.8 1.126 1.861 123.3 26.3 11.9